Stations météo

réclame
Mon MeteoGroup
Stornoway, Grande-Bretagne (3026): Température de l'air & dewpoint: 13.07.2019 19:00:00 - 19.07.2019 19:00:00 (BST)Stornoway, Grande-Bretagne (3026): Température de l'air -20cm & Température de l'air -100cm: 13.07.2019 19:00:00 - 19.07.2019 19:00:00 (BST)Stornoway, Grande-Bretagne (3026): Vitesse du vent & gusts: 13.07.2019 19:00:00 - 19.07.2019 19:00:00 (BST)Stornoway, Grande-Bretagne (3026): Direction du vent: 13.07.2019 19:00:00 - 19.07.2019 19:00:00 (BST)Stornoway, Grande-Bretagne (3026): reduced air pressure: 13.07.2019 19:00:00 - 19.07.2019 19:00:00 (BST)Stornoway, Grande-Bretagne (3026): visibility: 13.07.2019 19:00:00 - 19.07.2019 19:00:00 (BST)Stornoway, Grande-Bretagne (3026): Ensoleillement: 13.07.2019 19:00:00 - 19.07.2019 19:00:00 (BST)Stornoway, Grande-Bretagne (3026): Quantités de précipitations: 13.07.2019 19:00:00 - 19.07.2019 19:00:00 (BST)
Date & Time tt [°C] td [°C] tt -20cm [°C] tt -100cm [°C] ff [km/h] ff [knt] fx [km/h] fx [knt] dd ppp [hPa] vv [km] sd [min] rr [mm]
19.07.2019 19:00:00 17,3 11,4 - - 11 6 - - SW 1002,2 65 54 0,0
19.07.2019 18:00:00 16,2 12,3 - - 13 7 - - SW 1002,5 75 0 0,0
19.07.2019 17:00:00 16,1 11,7 - - 16 9 - - SW 1002,6 75 12 0,0
19.07.2019 16:00:00 16,0 11,2 - - 15 8 - - SW 1002,8 75 0 0,0
19.07.2019 15:00:00 15,2 11,9 - - 21 11 - - S 1003,0 10 6 0,0
19.07.2019 14:00:00 14,9 11,4 - - 18 10 - - S 1003,0 75 6 0,0
19.07.2019 13:00:00 13,6 11,8 - - 24 13 - - SSW 1002,8 75 6 0,4
19.07.2019 12:00:00 16,4 12,9 - - 26 14 - - S 1002,5 70 18 0,0
19.07.2019 11:00:00 14,3 11,5 - - 24 13 - - SSW 1002,5 60 6 0,0
19.07.2019 10:00:00 15,0 12,5 15,5 13,4 29 16 - - SSW 1002,2 45 36 0,0
19.07.2019 09:00:00 13,8 12,1 - - 26 14 - - S 1002,3 30 42 0,0
19.07.2019 08:00:00 13,3 12,3 - - 22 12 - - SSW 1002,2 30 18 0,0
19.07.2019 07:00:00 13,0 12,1 - - 11 6 - - S 1002,0 40 0 0,0
19.07.2019 06:00:00 12,8 11,6 - - 15 8 - - SW 1001,8 50 0 0,2
19.07.2019 05:00:00 12,7 11,4 - - 16 9 - - SW 1001,7 50 0 0,0
19.07.2019 04:00:00 12,9 11,1 - - 18 10 - - SSW 1001,5 45 0 0,0
19.07.2019 03:00:00 13,0 11,3 - - 21 11 - - SSW 1001,4 45 0 0,0
19.07.2019 02:00:00 12,9 11,4 - - 21 11 - - SSW 1001,5 50 0 0,0
19.07.2019 01:00:00 13,1 11,8 - - 24 13 - - SSW 1001,5 35 - 0,0
19.07.2019 00:00:00 13,4 11,7 - - 22 12 - - SSW 1001,5 40 0 0,0
18.07.2019 23:00:00 13,3 11,0 - - 16 9 - - SW 1001,6 60 0 0,0
18.07.2019 22:00:00 13,7 11,2 - - 16 9 - - SW 1001,6 60 0 0,0
18.07.2019 21:00:00 14,2 11,2 - - 15 8 - - SW 1001,4 65 6 0,0
18.07.2019 20:00:00 15,1 11,1 - - 22 12 - - WSW 1001,1 75 48 0,0
18.07.2019 19:00:00 16,2 11,5 - - 29 16 - - W 1000,8 75 48 0,0
18.07.2019 18:00:00 16,9 12,1 - - 22 12 - - W 1000,6 75 18 0,0
18.07.2019 17:00:00 15,5 13,2 - - 15 8 - - WSW 1000,5 75 0 0,0
18.07.2019 16:00:00 14,7 12,7 - - 26 14 - - W 1000,0 15 6 0,0
18.07.2019 15:00:00 16,1 13,6 - - 28 15 - - W 999,6 75 30 0,2
18.07.2019 14:00:00 15,1 14,7 - - 18 10 - - S 999,6 20 6 2,0
18.07.2019 13:00:00 15,2 13,6 - - 22 12 - - S 999,4 21 12 0,2
18.07.2019 12:00:00 13,5 12,5 - - 28 15 - - SSW 999,6 2,3 12 1,4
18.07.2019 11:00:00 15,4 13,3 - - 28 15 - - S 999,1 35 18 0,2
18.07.2019 10:00:00 15,6 13,4 15,2 13,2 22 12 - - SSW 999,5 45 12 0,2
18.07.2019 09:00:00 13,6 12,2 - - 18 10 - - WSW 999,5 5 0 0,0
18.07.2019 08:00:00 13,8 12,7 - - 16 9 - - SSW 999,3 25 0 0,0
18.07.2019 07:00:00 13,2 12,4 - - 21 11 - - SSW 999,3 35 0 0,0
18.07.2019 06:00:00 13,0 12,2 - - 21 11 - - SSW 999,4 27 0 0,0
18.07.2019 05:00:00 12,9 12,2 - - 22 12 - - SSW 999,6 27 0 0,2
18.07.2019 04:00:00 12,8 12,3 - - 21 11 - - S 1000,2 30 0 0,0
18.07.2019 03:00:00 13,0 12,3 - - 18 10 - - S 1000,8 30 0 0,0
18.07.2019 02:00:00 12,8 12,1 - - 18 10 - - S 1001,2 30 0 0,0
18.07.2019 01:00:00 12,5 11,6 - - 16 9 - - SSW 1001,5 40 - 0,0
18.07.2019 00:00:00 13,4 12,2 - - 16 9 - - SSW 1001,7 45 0 0,0
17.07.2019 23:00:00 13,6 11,9 - - 16 9 - - SSW 1001,8 55 0 0,0
17.07.2019 22:00:00 14,0 11,8 - - 18 10 - - SW 1002,0 65 0 0,0
17.07.2019 21:00:00 14,2 10,9 - - 22 12 - - SW 1001,9 75 18 0,0
17.07.2019 20:00:00 14,9 11,6 - - 21 11 - - WSW 1001,9 60 18 0,0
17.07.2019 19:00:00 15,9 11,6 - - 28 15 - - W 1001,6 75 42 0,0
17.07.2019 18:00:00 16,3 12,4 - - 24 13 - - WSW 1001,5 75 36 0,0
17.07.2019 17:00:00 14,8 14,4 - - 22 12 46 25 WSW 1001,4 70 0 0,0
17.07.2019 16:00:00 13,6 13,5 - - 37 20 50 27 S 1001,5 9 0 0,4
17.07.2019 15:00:00 13,5 13,4 - - 29 16 - - S 1001,9 5 0 0,6
17.07.2019 14:00:00 13,4 13,2 - - 31 17 48 26 S 1002,4 5 0 0,2
17.07.2019 13:00:00 13,3 13,0 - - 34 18 50 27 S 1002,8 11 0 1,6
17.07.2019 12:00:00 13,3 12,9 - - 35 19 55 30 S 1003,2 8 0 1,8
17.07.2019 11:00:00 13,5 13,2 - - 29 16 - - S 1003,7 5 0 0,4
17.07.2019 10:00:00 13,8 13,5 15,7 13,2 22 12 - - S 1004,5 9 0 0,2
17.07.2019 09:00:00 13,8 13,5 - - 22 12 - - SSE 1005,3 21 0 0,6
17.07.2019 08:00:00 13,7 13,5 - - 24 13 - - SSE 1005,9 13 0 2,0
17.07.2019 07:00:00 13,6 13,3 - - 24 13 - - SSE 1006,7 18 0 0,0
17.07.2019 06:00:00 13,6 13,2 - - 29 16 - - SSE 1007,3 23 0 0,0
17.07.2019 05:00:00 13,5 13,3 - - 21 11 - - S 1008,0 26 0 0,0
17.07.2019 04:00:00 13,4 13,1 - - 21 11 - - SSW 1009,2 14 0 2,0
17.07.2019 03:00:00 13,8 13,2 - - 22 12 - - S 1010,0 30 0 0,0
17.07.2019 02:00:00 13,7 13,4 - - 22 12 - - S 1010,9 23 0 1,6
17.07.2019 01:00:00 14,0 13,2 - - 22 12 - - S 1011,5 7 - 0,0
17.07.2019 00:00:00 14,1 13,1 - - 18 10 - - S 1011,8 28 0 0,0
16.07.2019 23:00:00 14,2 13,3 - - 18 10 - - S 1012,3 27 0 0,0
16.07.2019 22:00:00 14,5 13,1 - - 24 13 - - S 1012,7 30 0 0,0
16.07.2019 21:00:00 14,8 13,0 - - 18 10 - - S 1013,1 29 0 0,0
16.07.2019 20:00:00 15,3 13,0 - - 15 8 - - S 1013,5 40 0 0,0
16.07.2019 19:00:00 15,0 12,8 - - 16 9 - - S 1013,7 35 0 0,0
16.07.2019 18:00:00 15,4 13,0 - - 21 11 - - S 1013,8 30 0 0,0
16.07.2019 17:00:00 16,7 13,5 - - 9 5 - - SSW 1014,2 40 0 0,0
16.07.2019 16:00:00 16,5 13,0 - - 24 13 - - S 1014,5 35 36 0,0
16.07.2019 15:00:00 18,5 13,7 - - 28 15 - - S 1014,6 45 54 0,0
16.07.2019 14:00:00 19,1 13,1 - - 29 16 - - SSW 1014,7 70 60 0,0
16.07.2019 13:00:00 18,4 14,0 - - 28 15 - - S 1014,9 70 54 0,0
16.07.2019 12:00:00 16,3 13,7 - - 22 12 - - S 1015,2 50 60 0,0
16.07.2019 11:00:00 16,1 13,6 - - 28 15 - - S 1015,2 45 48 0,0
16.07.2019 10:00:00 16,3 13,6 15,7 13,0 26 14 - - S 1015,5 45 24 -
16.07.2019 09:00:00 15,8 13,2 - - 22 12 50 27 SSW 1015,6 45 18 0,0
16.07.2019 08:00:00 14,7 13,4 - - 9 5 - - S 1015,7 30 0 0,0
16.07.2019 07:00:00 14,1 13,1 - - 11 6 - - S 1016,0 22 0 0,0
16.07.2019 06:00:00 13,6 12,7 - - 8 4 - - SSW 1016,0 22 0 0,0
16.07.2019 05:00:00 13,8 12,9 - - 11 6 - - SSW 1016,3 29 0 0,0
16.07.2019 04:00:00 13,4 12,5 - - 8 4 - - S 1016,5 30 0 0,0
16.07.2019 03:00:00 12,5 11,5 - - 4 2 - - SSW 1017,1 29 0 0,0
16.07.2019 02:00:00 12,8 11,7 - - 4 2 - - WSW 1017,5 35 0 0,0
16.07.2019 01:00:00 13,2 12,2 - - 11 6 - - SSW 1017,8 55 - 0,0
16.07.2019 00:00:00 13,6 11,9 - - 15 8 - - SSW 1018,2 45 0 0,0
15.07.2019 23:00:00 13,9 12,6 - - 13 7 - - S 1018,3 50 0 0,0
15.07.2019 22:00:00 14,3 12,5 - - 13 7 - - S 1018,3 60 0 0,0
15.07.2019 21:00:00 16,8 11,8 - - 13 7 - - SSW 1018,6 70 6 0,0
15.07.2019 20:00:00 17,1 12,5 - - 16 9 - - S 1018,7 75 24 0,0
15.07.2019 19:00:00 18,1 12,5 - - 15 8 - - S 1018,9 70 60 0,0
15.07.2019 18:00:00 18,2 13,4 - - 13 7 - - SSE 1019,0 45 60 0,0
15.07.2019 17:00:00 19,6 14,1 - - 15 8 - - S 1019,4 75 60 0,0
15.07.2019 16:00:00 19,0 14,6 - - 18 10 - - SSE 1019,8 75 60 0,0
15.07.2019 15:00:00 18,4 13,8 - - 16 9 - - SSE 1020,0 75 60 0,0
15.07.2019 14:00:00 17,8 13,3 - - 18 10 - - SSE 1020,4 75 60 0,0
15.07.2019 13:00:00 17,0 13,0 - - 18 10 - - SSE 1020,6 75 60 0,0
15.07.2019 12:00:00 16,1 12,4 - - 15 8 - - SSE 1020,9 75 60 0,0
15.07.2019 11:00:00 16,0 12,9 - - 13 7 - - SSE 1021,2 75 60 0,0
15.07.2019 10:00:00 15,3 12,4 15,0 13,0 13 7 - - SSE 1021,4 75 60 0,0
15.07.2019 09:00:00 15,3 12,1 - - 11 6 - - SE 1021,7 75 60 0,0
15.07.2019 08:00:00 14,5 12,8 - - 9 5 - - SE 1021,8 75 60 0,0
15.07.2019 07:00:00 11,7 11,4 - - 2 1 - - NNW 1022,0 70 60 0,0
15.07.2019 06:00:00 8,6 8,2 - - 4 2 - - NNW 1022,3 60 12 0,0
15.07.2019 05:00:00 8,4 8,0 - - 4 2 - - NNE 1022,7 60 0 0,0
15.07.2019 04:00:00 8,3 7,8 - - 5 3 - - NW 1023,0 55 0 0,0
15.07.2019 03:00:00 8,7 8,2 - - 4 2 - - NW 1023,6 35 0 0,0
15.07.2019 02:00:00 9,9 9,4 - - 5 3 - - WSW 1023,9 28 0 0,0
15.07.2019 01:00:00 9,5 8,5 - - 4 2 - - WNW 1024,0 65 - 0,0
15.07.2019 00:00:00 10,4 9,2 - - 5 3 - - NW 1024,2 60 0 0,0
14.07.2019 23:00:00 11,9 10,1 - - 4 2 - - SSE 1024,5 75 0 0,0
14.07.2019 22:00:00 12,7 10,2 - - 5 3 - - ESE 1024,6 75 48 0,0
14.07.2019 21:00:00 14,6 10,3 - - 4 2 - - SSE 1024,9 75 54 0,0
14.07.2019 20:00:00 14,5 10,5 - - 9 5 - - SSE 1025,1 75 0 0,0
14.07.2019 19:00:00 15,1 10,6 - - 15 8 - - SSE 1025,3 75 54 0,0
14.07.2019 18:00:00 15,8 11,2 - - 9 5 - - S 1025,4 75 24 0,0
14.07.2019 17:00:00 15,2 11,7 - - 11 6 - - S 1025,8 75 0 0,0
14.07.2019 16:00:00 14,6 11,3 - - 13 7 - - S 1026,0 75 0 0,0
14.07.2019 15:00:00 14,9 11,7 - - 15 8 - - S 1026,0 75 24 0,0
14.07.2019 14:00:00 15,0 11,5 - - 16 9 - - S 1026,0 75 48 0,0
14.07.2019 13:00:00 15,9 12,5 - - 16 9 - - S 1026,1 75 24 0,0
14.07.2019 12:00:00 15,1 12,4 - - 15 8 - - S 1026,1 75 0 0,0
14.07.2019 11:00:00 14,4 10,8 - - 13 7 - - S 1026,2 75 0 0,0
14.07.2019 10:00:00 14,0 10,0 15,2 13,0 11 6 - - S 1026,2 75 6 0,0
14.07.2019 09:00:00 13,8 9,8 - - 8 4 - - SSE 1026,3 75 0 0,0
14.07.2019 08:00:00 13,2 9,8 - - 8 4 - - SSW 1026,2 75 0 0,0
14.07.2019 07:00:00 12,8 10,2 - - 5 3 - - S 1026,0 75 0 0,0
14.07.2019 06:00:00 12,1 10,0 - - 5 3 - - SSW 1025,9 75 0 0,0
14.07.2019 05:00:00 11,9 8,8 - - 2 1 - - SW 1026,1 75 0 0,0
14.07.2019 04:00:00 11,7 9,0 - - 5 3 - - WSW 1026,2 75 0 0,0
14.07.2019 03:00:00 12,5 8,7 - - 5 3 - - N 1026,5 75 0 0,0
14.07.2019 02:00:00 12,4 8,4 - - 11 6 - - WNW 1026,8 75 0 0,0
14.07.2019 01:00:00 12,3 10,1 - - 5 3 - - WSW 1026,5 75 - 0,0
14.07.2019 00:00:00 12,6 9,2 - - 8 4 - - WNW 1026,6 75 0 0,0
13.07.2019 23:00:00 12,8 9,3 - - 8 4 - - W 1026,4 45 0 0,0
13.07.2019 22:00:00 13,3 9,5 - - 11 6 - - WNW 1026,3 75 0 0,0
13.07.2019 21:00:00 13,5 10,3 - - 15 8 - - NW 1026,0 45 0 0,0
13.07.2019 20:00:00 13,9 10,3 - - 16 9 - - NW 1025,8 75 0 0,0
13.07.2019 19:00:00 14,3 9,5 - - 16 9 - - NW 1025,8 75 0 0,0

tt = Température de l'air
td = dewpoint
tt -20cm = Température de l'air -20cm
tt -100cm = Température de l'air -100cm
ff = Vitesse du vent
fx = gusts
dd = Direction du vent
ppp = reduced air pressure
vv = visibility
sd = Ensoleillement
rr = Quantités de précipitations

stations d'obs. à proximité